Weather History for Vernal, UT

Change the Weather History Date:

Monday, September 2, 2013

  Actual Average Record
Temperature  
Mean Temperature 74 °F 66 °F  
Max Temperature 86 °F 80 °F 94 °F (1955)
Min Temperature 61 °F 51 °F 32 °F (1953)
Degree Days  
Heating Degree Days 0 2  
Month to date heating degree days 0 3  
Since 1 July heating degree days 2 19  
Cooling Degree Days 9 2  
Month to date cooling degree days 20 4  
Year to date cooling degree days 737 493  
Growing Degree Days 24 (Base 50)    
Moisture  
Dew Point 57 °F    
Average Humidity 56    
Maximum Humidity 78    
Minimum Humidity 34    
Precipitation  
Precipitation 0.12 in 0.03 in 1.30 in (1938)
Month to date precipitation 0.13 0.06  
Year to date precipitation 4.96 5.67  
Sea Level Pressure  
Sea Level Pressure 29.95 in    
Wind  
Wind Speed 5 mph (WSW)    
Max Wind Speed 15 mph    
Max Gust Speed 21 mph    
Visibility 9 miles    
Events Rain , Thunderstorm    
T = Trace of Precipitation, MM = Missing Value Source: NWS Daily Summary

Daily Weather History Graph

Daily Weather History Graph

Search for Another Location

Airport:

Trip Planner

Search our weather history database for the weather conditions in past years. The results will help you decide how hot, cold, wet, or windy it might be!

Date:

Astronomy

Sep. 02, 2013 Rise Set
Actual Time 6:46 AM MDT 7:47 PM MDT
Civil Twilight 6:18 AM MDT 8:15 PM MDT
Nautical Twilight 5:45 AM MDT 8:48 PM MDT
Astronomical Twilight 5:10 AM MDT 9:23 PM MDT
Moon 4:06 AM MDT (9/2) 6:03 PM MDT (9/2)
Length of Visible Light 13h 56m
Length of Day
13h 01m
Waning Crescent, 7% of the Moon is Illuminated
Sep 2
Waning Crescent
Sep 5
New
Sep 12
First Quarter
Sep 19
Full
Sep 26
Last Quarter

Hourly Weather History & Observations

Time (MDT) Temp. Heat Index Dew Point Humidity Pressure Visibility Wind Dir Wind Speed Gust Speed Precip Events Conditions
12:53 AM 66.9 °F - 57.9 °F 73% 29.91 in 10.0 mi Calm Calm - N/A   Mostly Cloudy
1:53 AM 66.0 °F - 57.9 °F 75% 29.91 in 10.0 mi Calm Calm - N/A   Clear
2:53 AM 64.9 °F - 55.9 °F 73% 29.92 in 10.0 mi West 3.5 mph - N/A   Partly Cloudy
3:53 AM 63.0 °F - 55.9 °F 78% 29.93 in 10.0 mi Calm Calm - N/A   Mostly Cloudy
4:53 AM 64.9 °F - 55.0 °F 70% 29.91 in 10.0 mi Calm Calm - N/A   Clear
5:53 AM 62.1 °F - 55.0 °F 78% 29.95 in 10.0 mi West 5.8 mph - N/A   Clear
6:53 AM 63.0 °F - 54.0 °F 72% 29.96 in 10.0 mi WNW 5.8 mph - N/A   Partly Cloudy
7:53 AM 64.9 °F - 57.0 °F 75% 29.99 in 10.0 mi Calm Calm - N/A   Mostly Cloudy
8:34 AM 64.4 °F - 60.8 °F 88% 30.19 in 1.0 mi Calm Calm - 0.11 in Rain , Thunderstorm Heavy Thunderstorms and Rain
8:40 AM 64.4 °F - 60.8 °F 88% 30.19 in 4.0 mi SSE 3.5 mph - 0.11 in Rain , Thunderstorm Light Thunderstorms and Rain
8:53 AM 64.9 °F - 60.1 °F 84% 30.01 in 10.0 mi South 8.1 mph - 0.12 in Rain , Thunderstorm Light Thunderstorms and Rain
9:53 AM 64.9 °F - 62.1 °F 90% 30.02 in 10.0 mi ENE 3.5 mph - 0.00 in   Overcast
10:53 AM 72.0 °F - 63.0 °F 73% 30.01 in 10.0 mi NE 3.5 mph - N/A   Partly Cloudy
11:53 AM 75.0 °F - 60.1 °F 60% 29.99 in 10.0 mi Variable 3.5 mph - N/A   Clear
12:53 PM 79.0 °F - 61.0 °F 54% 29.96 in 10.0 mi Variable 3.5 mph - N/A   Clear
1:53 PM 82.9 °F 82.8 °F 59.0 °F 44% 29.93 in 10.0 mi South 9.2 mph 16.1 mph N/A   Clear
2:53 PM 82.0 °F 81.6 °F 55.9 °F 41% 29.91 in 10.0 mi SSW 10.4 mph - N/A   Scattered Clouds
3:53 PM 86.0 °F 84.7 °F 55.9 °F 36% 29.89 in 10.0 mi West 10.4 mph 18.4 mph N/A   Scattered Clouds
4:53 PM 84.9 °F 83.2 °F 53.1 °F 33% 29.87 in 10.0 mi WSW 4.6 mph - N/A   Clear
5:53 PM 84.9 °F 83.3 °F 54.0 °F 34% 29.86 in 10.0 mi West 6.9 mph - N/A   Partly Cloudy
6:53 PM 82.9 °F 81.8 °F 53.1 °F 36% 29.87 in 10.0 mi WSW 5.8 mph - N/A   Clear
7:53 PM 80.1 °F - 52.0 °F 38% 29.86 in 10.0 mi West 4.6 mph - N/A   Clear
8:53 PM 73.9 °F - 54.0 °F 50% 29.90 in 10.0 mi West 4.6 mph - N/A   Partly Cloudy
9:53 PM 71.1 °F - 54.0 °F 55% 29.93 in 10.0 mi WNW 5.8 mph - N/A   Clear
10:53 PM 71.1 °F - 55.0 °F 57% 29.92 in 10.0 mi Calm Calm - N/A   Clear
11:53 PM 66.9 °F - 55.0 °F 66% 29.93 in 10.0 mi West 4.6 mph - N/A   Clear